LNKJL ENGM-ENKJ

Flight info

Callsign LNKJL
Flight time 0h 11m
Altitude 1000
Route VFR FLIGHT FROM GARDERMOEN TO KJELLER
Aircraft C152/L-S/L

Departure

Time 2026-05-05 11:21
Airport Oslo-Gardermoen International Airport (ENGM)

Arrival

Time 2026-05-05 11:33
Airport Lillestrøm Airfield, Kjeller (ENKJ)
Time Latitude Longitude Altitude Speed Heading
2026-05-05 11:03 60.18858 11.08415 675 ft 0 kts 19°
2026-05-05 11:16 60.18849 11.08409 675 ft 2 kts 19°
2026-05-05 11:16 60.18834 11.08398 675 ft 2 kts 19°
2026-05-05 11:16 60.18818 11.08388 675 ft 2 kts 19°
2026-05-05 11:16 60.18811 11.08383 675 ft 2 kts 30°
2026-05-05 11:17 60.18785 11.08366 675 ft 9 kts 220°
2026-05-05 11:17 60.18783 11.08266 675 ft 6 kts 290°
2026-05-05 11:17 60.18795 11.08192 676 ft 6 kts 288°
2026-05-05 11:17 60.18813 11.08123 676 ft 9 kts 344°
2026-05-05 11:18 60.18871 11.08148 675 ft 10 kts 15°
2026-05-05 11:18 60.18950 11.08192 675 ft 13 kts 14°
2026-05-05 11:18 60.19037 11.08241 675 ft 14 kts 15°
2026-05-05 11:18 60.19130 11.08295 675 ft 12 kts 17°
2026-05-05 11:19 60.19207 11.08324 674 ft 10 kts 334°
2026-05-05 11:19 60.19237 11.08219 674 ft 8 kts 287°
2026-05-05 11:19 60.19252 11.08115 674 ft 7 kts 286°
2026-05-05 11:19 60.19258 11.08071 674 ft 0 kts 286°
2026-05-05 11:20 60.19269 11.07990 674 ft 19 kts 287°
2026-05-05 11:20 60.19344 11.07864 673 ft 9 kts 359°
2026-05-05 11:20 60.19359 11.07868 673 ft 4 kts 15°
2026-05-05 11:20 60.19591 11.08000 674 ft 60 kts 16°
2026-05-05 11:21 60.20030 11.08262 810 ft 68 kts 359°
2026-05-05 11:21 60.20407 11.08029 1063 ft 57 kts 317°
2026-05-05 11:21 60.20715 11.07464 1273 ft 63 kts 309°
2026-05-05 11:21 60.20958 11.06622 1349 ft 75 kts 290°
2026-05-05 11:22 60.21068 11.05525 1413 ft 82 kts 278°
2026-05-05 11:22 60.21117 11.04376 1503 ft 82 kts 272°
2026-05-05 11:22 60.21111 11.03171 1587 ft 87 kts 272°
2026-05-05 11:22 60.21120 11.02016 1745 ft 81 kts 272°
2026-05-05 11:23 60.21091 11.00884 1835 ft 82 kts 267°
2026-05-05 11:23 60.20796 10.99903 1923 ft 93 kts 213°
2026-05-05 11:23 60.20079 10.99708 1849 ft 109 kts 191°
2026-05-05 11:23 60.19315 10.99550 1839 ft 109 kts 194°
2026-05-05 11:24 60.18569 10.99411 1822 ft 106 kts 189°
2026-05-05 11:24 60.17838 10.99315 1788 ft 106 kts 190°
2026-05-05 11:24 60.17097 10.99170 1803 ft 106 kts 193°
2026-05-05 11:24 60.16364 10.99016 1821 ft 106 kts 192°
2026-05-05 11:25 60.15631 10.98947 1757 ft 104 kts 183°
2026-05-05 11:25 60.14910 10.99052 1707 ft 103 kts 186°
2026-05-05 11:25 60.14211 10.99009 1681 ft 100 kts 186°
2026-05-05 11:25 60.13492 10.99042 1689 ft 103 kts 183°
2026-05-05 11:26 60.13022 10.99123 1739 ft 102 kts 179°
2026-05-05 11:26 60.12314 10.99390 1804 ft 106 kts 173°
2026-05-05 11:26 60.11604 10.99668 1843 ft 105 kts 175°
2026-05-05 11:26 60.10635 11.00128 1891 ft 109 kts 174°
2026-05-05 11:27 60.10126 11.00346 1889 ft 111 kts 175°
2026-05-05 11:27 60.09401 11.00645 2007 ft 106 kts 175°
2026-05-05 11:27 60.08681 11.00868 2057 ft 106 kts 181°
2026-05-05 11:27 60.07955 11.00922 2071 ft 101 kts 197°
2026-05-05 11:28 60.07267 11.00637 2140 ft 101 kts 199°
2026-05-05 11:28 60.06571 11.00345 2144 ft 102 kts 202°
2026-05-05 11:28 60.05888 10.99975 2085 ft 103 kts 206°
2026-05-05 11:28 60.05207 10.99489 1966 ft 105 kts 208°
2026-05-05 11:29 60.04530 10.98940 1939 ft 105 kts 208°
2026-05-05 11:29 60.03852 10.98408 1938 ft 104 kts 208°
2026-05-05 11:29 60.03172 10.97874 1837 ft 105 kts 208°
2026-05-05 11:29 60.02472 10.97412 1772 ft 107 kts 201°
2026-05-05 11:30 60.01753 10.96998 1736 ft 107 kts 204°
2026-05-05 11:30 60.01040 10.96597 1774 ft 107 kts 201°
2026-05-05 11:30 60.00332 10.96493 1777 ft 82 kts 175°
2026-05-05 11:30 59.99849 10.96844 1720 ft 71 kts 166°
2026-05-05 11:31 59.99403 10.97244 1626 ft 74 kts 159°
2026-05-05 11:31 59.98977 10.97794 1377 ft 71 kts 147°
2026-05-05 11:31 59.98635 10.98569 1095 ft 76 kts 129°
2026-05-05 11:31 59.98379 10.99397 871 ft 67 kts 118°
2026-05-05 11:32 59.98161 11.00205 651 ft 63 kts 123°
2026-05-05 11:32 59.97931 11.00923 586 ft 60 kts 131°
2026-05-05 11:32 59.97701 11.01609 544 ft 59 kts 129°
2026-05-05 11:32 59.97477 11.02301 453 ft 62 kts 126°
2026-05-05 11:33 59.97237 11.03041 364 ft 64 kts 128°
2026-05-05 11:33 59.97033 11.03663 344 ft 40 kts 124°
2026-05-05 11:33 59.96897 11.04086 337 ft 36 kts 122°
2026-05-05 11:33 59.96769 11.04481 342 ft 29 kts 123°
2026-05-05 11:34 59.96718 11.04696 342 ft 5 kts 43°
2026-05-05 11:34 59.96740 11.04769 351 ft 7 kts 64°
2026-05-05 11:34 59.96763 11.04865 348 ft 10 kts 59°
2026-05-05 11:34 59.96798 11.04961 345 ft 8 kts 37°
2026-05-05 11:35 59.96809 11.04983 349 ft 0 kts 117°
2026-05-05 11:35 59.96810 11.04979 348 ft 0 kts 117°